Time,TemperatureF,DewpointF,PressureIn,WindDirection,WindDirectionDegrees,WindSpeedMPH,WindSpeedGustMPH,Humidity,HourlyPrecipIn,Conditions,Clouds,dailyrainin,SoftwareType,DateUTC
2013-06-13 00:01:00,75.0,71.0,30.03,North,0,0.0,0.0,87,1.79,,,-99.99,,2013-06-13 04:01:00,
2013-06-13 00:12:00,75.0,71.0,30.03,North,0,0.0,0.0,87,1.79,,,-99.99,,2013-06-13 04:12:00,
2013-06-13 00:22:00,76.0,72.0,30.03,SSW,197,2.0,4.0,86,1.79,,,-99.99,,2013-06-13 04:22:00,
2013-06-13 00:32:00,75.0,71.0,30.03,SSW,210,4.0,8.0,88,1.79,,,-99.99,,2013-06-13 04:32:00,
2013-06-13 00:43:00,76.0,72.0,30.03,SSW,210,4.0,5.0,88,1.79,,,-99.99,,2013-06-13 04:43:00,
2013-06-13 00:53:00,75.0,71.0,30.03,SSW,210,6.0,9.0,88,1.79,,,-99.99,,2013-06-13 04:53:00,
2013-06-13 01:02:00,75.0,71.0,30.03,SSW,210,6.0,9.0,88,1.79,,,-99.99,,2013-06-13 05:02:00,
2013-06-13 01:12:00,75.0,72.0,30.02,SSW,212,5.0,6.0,89,1.79,,,-99.99,,2013-06-13 05:12:00,
2013-06-13 01:24:00,75.0,72.0,30.03,SSW,207,5.0,7.0,89,1.79,,,-99.99,,2013-06-13 05:24:00,
2013-06-13 01:33:00,75.0,72.0,30.02,SW,214,5.0,7.0,89,1.79,,,-99.99,,2013-06-13 05:33:00,
2013-06-13 01:43:00,75.0,72.0,30.02,SSW,204,5.0,7.0,91,1.79,,,-99.99,,2013-06-13 05:43:00,
2013-06-13 01:53:00,75.0,72.0,30.02,SSW,204,5.0,7.0,91,1.79,,,-99.99,,2013-06-13 05:53:00,
2013-06-13 02:02:00,75.0,73.0,30.01,SSW,212,4.0,6.0,93,1.79,,,-99.99,,2013-06-13 06:02:00,
2013-06-13 02:11:00,74.0,72.0,30.00,SSW,198,4.0,5.0,93,1.79,,,-99.99,,2013-06-13 06:11:00,
2013-06-13 02:22:00,74.0,72.0,30.00,South,184,4.0,4.0,92,1.79,,,-99.99,,2013-06-13 06:22:00,
2013-06-13 02:33:00,74.0,72.0,30.00,SSW,200,4.0,5.0,94,1.79,,,-99.99,,2013-06-13 06:33:00,
2013-06-13 02:44:00,74.0,72.0,29.99,North,0,0.0,0.0,94,1.79,,,-99.99,,2013-06-13 06:44:00,
2013-06-13 02:52:00,74.0,73.0,29.99,SSW,207,3.0,5.0,96,1.79,,,-99.99,,2013-06-13 06:52:00,
2013-06-13 03:01:00,74.0,73.0,29.98,SSW,212,4.0,5.0,97,1.79,,,-99.99,,2013-06-13 07:01:00,
2013-06-13 03:12:00,74.0,73.0,29.98,SSW,203,6.0,8.0,97,1.79,,,-99.99,,2013-06-13 07:12:00,
2013-06-13 03:22:00,74.0,73.0,29.98,SSW,194,6.0,7.0,98,1.79,,,-99.99,,2013-06-13 07:22:00,
2013-06-13 03:33:00,74.0,73.0,29.98,SSW,194,6.0,7.0,98,1.79,,,-99.99,,2013-06-13 07:33:00,
2013-06-13 03:42:00,74.0,74.0,29.98,SSW,207,6.0,7.0,100,1.79,,,-99.99,,2013-06-13 07:42:00,
2013-06-13 03:52:00,73.0,73.0,29.98,SW,215,7.0,9.0,99,1.79,,,-99.99,,2013-06-13 07:52:00,
2013-06-13 04:01:00,73.0,73.0,29.98,SSW,207,7.0,8.0,99,1.79,,,-99.99,,2013-06-13 08:01:00,
2013-06-13 04:11:00,73.0,73.0,29.98,South,188,7.0,9.0,100,1.79,,,-99.99,,2013-06-13 08:11:00,
2013-06-13 04:22:00,73.0,73.0,29.98,SW,217,6.0,8.0,100,1.79,,,-99.99,,2013-06-13 08:22:00,
2013-06-13 04:32:00,72.0,72.0,29.99,SSW,208,5.0,7.0,100,1.79,,,-99.99,,2013-06-13 08:32:00,
2013-06-13 04:43:00,72.0,72.0,29.99,SSW,212,4.0,6.0,99,1.79,,,-99.99,,2013-06-13 08:43:00,
2013-06-13 04:52:00,72.0,72.0,29.98,SW,221,4.0,5.0,100,1.79,,,-99.99,,2013-06-13 08:52:00,
2013-06-13 05:02:00,72.0,72.0,29.98,SSW,212,5.0,7.0,100,1.79,,,-99.99,,2013-06-13 09:02:00,
2013-06-13 05:12:00,72.0,72.0,29.98,SSW,207,5.0,7.0,100,1.79,,,-99.99,,2013-06-13 09:12:00,
2013-06-13 05:22:00,72.0,72.0,29.98,SSW,210,6.0,8.0,100,1.79,,,-99.99,,2013-06-13 09:22:00,
2013-06-13 05:32:00,72.0,72.0,29.98,SW,235,5.0,7.0,100,1.79,,,-99.99,,2013-06-13 09:32:00,
2013-06-13 05:42:00,72.0,72.0,29.98,WSW,242,4.0,5.0,100,1.79,,,-99.99,,2013-06-13 09:42:00,
2013-06-13 05:52:00,72.0,72.0,29.98,WSW,246,3.0,4.0,100,1.79,,,-99.99,,2013-06-13 09:52:00,
2013-06-13 06:01:00,71.0,71.0,29.98,West,266,3.0,5.0,100,1.79,,,-99.99,,2013-06-13 10:01:00,
2013-06-13 06:11:00,71.0,71.0,29.98,WSW,257,5.0,6.0,100,1.79,,,-99.99,,2013-06-13 10:11:00,
2013-06-13 06:22:00,71.0,71.0,29.99,WSW,255,5.0,7.0,100,1.79,,,-99.99,,2013-06-13 10:22:00,
2013-06-13 06:33:00,71.0,71.0,29.99,West,271,5.0,6.0,100,1.79,,,-99.99,,2013-06-13 10:33:00,
2013-06-13 06:43:00,71.0,71.0,29.99,West,264,5.0,6.0,100,1.79,,,-99.99,,2013-06-13 10:43:00,
2013-06-13 06:53:00,71.0,71.0,29.99,WSW,255,4.0,5.0,100,1.79,,,-99.99,,2013-06-13 10:53:00,
2013-06-13 07:02:00,72.0,72.0,29.99,SW,231,4.0,5.0,100,1.79,,,-99.99,,2013-06-13 11:02:00,
2013-06-13 07:11:00,72.0,72.0,30.00,SW,224,5.0,5.0,100,1.79,,,-99.99,,2013-06-13 11:11:00,
2013-06-13 07:23:00,72.0,72.0,30.00,SSW,211,2.0,4.0,99,1.79,,,-99.99,,2013-06-13 11:23:00,
2013-06-13 07:32:00,72.0,72.0,30.00,SSW,211,2.0,4.0,99,1.79,,,-99.99,,2013-06-13 11:32:00,
2013-06-13 07:42:00,73.0,73.0,30.00,SW,214,3.0,5.0,99,1.79,,,-99.99,,2013-06-13 11:42:00,
2013-06-13 07:52:00,73.0,72.0,30.00,SW,215,3.0,5.0,98,1.79,,,-99.99,,2013-06-13 11:52:00,
2013-06-13 08:01:00,74.0,73.0,30.00,SW,214,4.0,5.0,97,1.79,,,-99.99,,2013-06-13 12:01:00,
2013-06-13 08:12:00,75.0,74.0,30.01,West,264,4.0,6.0,96,1.79,,,-99.99,,2013-06-13 12:12:00,
2013-06-13 08:22:00,76.0,75.0,30.02,West,269,4.0,6.0,96,1.79,,,-99.99,,2013-06-13 12:22:00,
2013-06-13 08:35:00,76.0,75.0,30.02,West,270,3.0,5.0,96,1.79,,,-99.99,,2013-06-13 12:35:00,
2013-06-13 08:43:00,77.0,74.0,30.02,WSW,253,4.0,6.0,91,1.79,,,-99.99,,2013-06-13 12:43:00,
2013-06-13 08:52:00,78.0,73.0,30.03,WSW,255,4.0,6.0,86,1.79,,,-99.99,,2013-06-13 12:52:00,
2013-06-13 09:01:00,79.0,74.0,30.03,West,269,5.0,7.0,85,1.79,,,-99.99,,2013-06-13 13:01:00,
2013-06-13 09:11:00,79.0,73.0,30.03,WNW,301,5.0,8.0,82,1.79,,,-99.99,,2013-06-13 13:11:00,
2013-06-13 09:22:00,79.0,73.0,30.03,WNW,298,6.0,10.0,83,1.79,,,-99.99,,2013-06-13 13:22:00,
2013-06-13 09:32:00,80.0,75.0,30.03,WNW,298,7.0,10.0,84,1.79,,,-99.99,,2013-06-13 13:32:00,
2013-06-13 09:43:00,80.0,73.0,30.03,West,278,5.0,8.0,80,1.79,,,-99.99,,2013-06-13 13:43:00,
2013-06-13 09:53:00,81.0,74.0,30.03,WNW,294,6.0,8.0,80,1.79,,,-99.99,,2013-06-13 13:53:00,
2013-06-13 10:02:00,81.0,75.0,30.03,NNW,332,7.0,11.0,81,1.79,,,-99.99,,2013-06-13 14:02:00,
2013-06-13 10:11:00,81.0,73.0,30.03,NW,318,8.0,11.0,78,1.79,,,-99.99,,2013-06-13 14:11:00,
2013-06-13 10:22:00,81.0,74.0,30.03,WNW,301,7.0,12.0,79,1.79,,,-99.99,,2013-06-13 14:22:00,
2013-06-13 10:33:00,82.0,74.0,30.03,NW,305,8.0,13.0,76,1.79,,,-99.99,,2013-06-13 14:33:00,
2013-06-13 10:43:00,83.0,75.0,30.03,WNW,285,6.0,9.0,76,1.79,,,-99.99,,2013-06-13 14:43:00,
2013-06-13 10:53:00,83.0,74.0,30.03,NW,315,6.0,11.0,75,1.79,,,-99.99,,2013-06-13 14:53:00,
2013-06-13 11:02:00,83.0,73.0,30.03,NNW,345,6.0,10.0,72,1.79,,,-99.99,,2013-06-13 15:02:00,
2013-06-13 11:12:00,83.0,71.0,30.03,NW,323,7.0,10.0,67,1.79,,,-99.99,,2013-06-13 15:12:00,
2013-06-13 11:22:00,84.0,72.0,30.03,NW,314,5.0,10.0,68,1.79,,,-99.99,,2013-06-13 15:22:00,
2013-06-13 11:33:00,84.0,72.0,30.03,WNW,298,7.0,10.0,68,1.79,,,-99.99,,2013-06-13 15:33:00,
2013-06-13 11:43:00,84.0,72.0,30.03,WNW,298,7.0,10.0,68,1.79,,,-99.99,,2013-06-13 15:43:00,
2013-06-13 11:53:00,85.0,72.0,30.03,West,269,5.0,9.0,66,1.79,,,-99.99,,2013-06-13 15:53:00,
2013-06-13 12:02:00,85.0,72.0,30.03,NW,322,7.0,9.0,65,1.79,,,-99.99,,2013-06-13 16:02:00,
2013-06-13 12:12:00,86.0,71.0,30.03,NW,314,8.0,11.0,62,1.79,,,-99.99,,2013-06-13 16:12:00,
2013-06-13 12:22:00,86.0,72.0,30.02,WSW,255,7.0,11.0,63,1.79,,,-99.99,,2013-06-13 16:22:00,
2013-06-13 12:33:00,86.0,72.0,30.02,WSW,255,7.0,11.0,63,1.79,,,-99.99,,2013-06-13 16:33:00,
2013-06-13 12:43:00,86.0,71.0,30.02,WNW,290,5.0,8.0,61,1.79,,,-99.99,,2013-06-13 16:43:00,
2013-06-13 12:53:00,86.0,73.0,30.01,West,278,6.0,8.0,65,1.79,,,-99.99,,2013-06-13 16:53:00,
2013-06-13 13:02:00,86.0,72.0,30.01,West,262,5.0,10.0,63,1.79,,,-99.99,,2013-06-13 17:02:00,
2013-06-13 13:12:00,87.0,74.0,30.01,West,271,6.0,9.0,65,1.79,,,-99.99,,2013-06-13 17:12:00,
2013-06-13 13:24:00,89.0,73.0,30.00,West,269,5.0,8.0,59,1.79,,,-99.99,,2013-06-13 17:24:00,
2013-06-13 13:33:00,89.0,72.0,30.00,WSW,256,6.0,11.0,58,1.79,,,-99.99,,2013-06-13 17:33:00,
2013-06-13 13:43:00,88.0,72.0,29.99,West,277,5.0,8.0,59,1.79,,,-99.99,,2013-06-13 17:43:00,
2013-06-13 13:53:00,88.0,71.0,29.99,West,271,8.0,11.0,57,1.79,,,-99.99,,2013-06-13 17:53:00,
2013-06-13 14:02:00,88.0,71.0,29.99,West,271,8.0,11.0,57,1.79,,,-99.99,,2013-06-13 18:02:00,
2013-06-13 14:11:00,89.0,72.0,29.98,West,259,3.0,10.0,57,1.79,,,-99.99,,2013-06-13 18:11:00,
2013-06-13 14:22:00,90.0,71.0,29.97,West,274,6.0,10.0,53,1.79,,,-99.99,,2013-06-13 18:22:00,
2013-06-13 14:33:00,91.0,71.0,29.97,West,263,3.0,11.0,52,1.79,,,-99.99,,2013-06-13 18:33:00,
2013-06-13 14:43:00,91.0,71.0,29.96,WNW,290,7.0,12.0,53,1.79,,,-99.99,,2013-06-13 18:43:00,
2013-06-13 14:52:00,91.0,71.0,29.96,WNW,298,6.0,10.0,52,1.79,,,-99.99,,2013-06-13 18:52:00,
2013-06-13 15:01:00,91.0,69.0,29.96,WSW,257,8.0,13.0,48,1.79,,,-99.99,,2013-06-13 19:01:00,
2013-06-13 15:11:00,90.0,70.0,29.95,SW,236,4.0,8.0,52,1.79,,,-99.99,,2013-06-13 19:11:00,
2013-06-13 15:22:00,91.0,69.0,29.94,NW,305,7.0,11.0,48,1.79,,,-99.99,,2013-06-13 19:22:00,
2013-06-13 15:33:00,90.0,71.0,29.94,NW,308,6.0,9.0,54,1.79,,,-99.99,,2013-06-13 19:33:00,
2013-06-13 15:43:00,89.0,69.0,29.93,NW,305,5.0,9.0,52,1.79,,,-99.99,,2013-06-13 19:43:00,
2013-06-13 15:53:00,89.0,69.0,29.93,West,270,3.0,8.0,52,1.79,,,-99.99,,2013-06-13 19:53:00,
2013-06-13 16:02:00,90.0,72.0,29.93,West,269,5.0,9.0,55,1.79,,,-99.99,,2013-06-13 20:02:00,
2013-06-13 16:11:00,92.0,69.0,29.93,WNW,287,8.0,10.0,47,1.79,,,-99.99,,2013-06-13 20:11:00,
2013-06-13 16:22:00,91.0,69.0,29.93,WNW,300,6.0,9.0,48,1.79,,,-99.99,,2013-06-13 20:22:00,
2013-06-13 16:33:00,91.0,69.0,29.93,WNW,300,6.0,9.0,48,1.79,,,-99.99,,2013-06-13 20:33:00,
2013-06-13 16:44:00,91.0,69.0,29.93,West,267,7.0,10.0,48,1.79,,,-99.99,,2013-06-13 20:44:00,
2013-06-13 16:53:00,91.0,68.0,29.93,West,260,7.0,11.0,47,1.79,,,-99.99,,2013-06-13 20:53:00,
2013-06-13 17:02:00,90.0,71.0,29.93,West,271,6.0,10.0,53,1.79,,,-99.99,,2013-06-13 21:02:00,
2013-06-13 17:11:00,89.0,69.0,29.93,SSW,200,8.0,22.0,52,1.79,,,-99.99,,2013-06-13 21:11:00,
2013-06-13 17:22:00,84.0,70.0,29.93,South,183,12.0,21.0,63,1.79,,,-99.99,,2013-06-13 21:22:00,
2013-06-13 17:34:00,82.0,69.0,29.93,South,187,14.0,24.0,65,1.79,,,-99.99,,2013-06-13 21:34:00,
2013-06-13 17:43:00,82.0,70.0,29.94,South,188,13.0,19.0,68,1.79,,,-99.99,,2013-06-13 21:43:00,
2013-06-13 18:02:00,80.0,69.0,29.93,SSW,201,14.0,21.0,70,1.79,,,-99.99,,2013-06-13 22:02:00,
2013-06-13 18:11:00,80.0,70.0,29.91,SSW,200,13.0,18.0,72,1.79,,,-99.99,,2013-06-13 22:11:00,
2013-06-13 18:22:00,80.0,70.0,29.92,South,187,11.0,16.0,71,1.79,,,-99.99,,2013-06-13 22:22:00,
2013-06-13 18:33:00,80.0,70.0,29.92,SSW,204,11.0,15.0,71,1.79,,,-99.99,,2013-06-13 22:33:00,
2013-06-13 18:43:00,80.0,69.0,29.91,SSW,203,11.0,15.0,69,1.79,,,-99.99,,2013-06-13 22:43:00,
2013-06-13 18:52:00,81.0,70.0,29.91,SSW,193,9.0,13.0,69,1.79,,,-99.99,,2013-06-13 22:52:00,
2013-06-13 19:02:00,81.0,69.0,29.91,SSW,193,9.0,13.0,68,1.79,,,-99.99,,2013-06-13 23:02:00,
2013-06-13 19:11:00,82.0,70.0,29.91,West,264,8.0,12.0,67,1.79,,,-99.99,,2013-06-13 23:11:00,
2013-06-13 19:22:00,82.0,70.0,29.90,SW,226,7.0,11.0,68,1.79,,,-99.99,,2013-06-13 23:22:00,
2013-06-13 19:32:00,82.0,70.0,29.90,SSW,210,8.0,13.0,67,1.79,,,-99.99,,2013-06-13 23:32:00,
2013-06-13 19:43:00,82.0,70.0,29.90,SSW,205,8.0,12.0,67,1.79,,,-99.99,,2013-06-13 23:43:00,
2013-06-13 19:52:00,82.0,70.0,29.90,SW,214,8.0,11.0,68,1.79,,,-99.99,,2013-06-13 23:52:00,
2013-06-13 20:01:00,82.0,70.0,29.90,SW,214,8.0,11.0,68,1.79,,,-99.99,,2013-06-14 00:01:00,
2013-06-13 20:12:00,83.0,71.0,29.90,SW,228,7.0,10.0,67,1.79,,,-99.99,,2013-06-14 00:12:00,
2013-06-13 20:22:00,82.0,70.0,29.90,SW,219,6.0,9.0,68,1.79,,,-99.99,,2013-06-14 00:22:00,
2013-06-13 20:34:00,82.0,72.0,29.90,SW,217,5.0,7.0,71,1.79,,,-99.99,,2013-06-14 00:34:00,
2013-06-13 20:43:00,81.0,71.0,29.90,SW,225,4.0,6.0,72,1.79,,,-99.99,,2013-06-14 00:43:00,
2013-06-13 20:53:00,81.0,71.0,29.90,SW,222,3.0,5.0,72,1.79,,,-99.99,,2013-06-14 00:53:00,
2013-06-13 21:01:00,80.0,71.0,29.91,SW,217,6.0,8.0,75,1.79,,,-99.99,,2013-06-14 01:01:00,
2013-06-13 21:11:00,80.0,71.0,29.91,SW,226,7.0,9.0,75,1.79,,,-99.99,,2013-06-14 01:11:00,
2013-06-13 21:22:00,80.0,72.0,29.91,SSW,211,7.0,9.0,77,1.79,,,-99.99,,2013-06-14 01:22:00,
2013-06-13 21:32:00,79.0,72.0,29.91,SW,225,6.0,8.0,79,1.79,,,-99.99,,2013-06-14 01:32:00,
2013-06-13 21:43:00,79.0,72.0,29.91,SSW,198,6.0,8.0,78,1.79,,,-99.99,,2013-06-14 01:43:00,
2013-06-13 21:52:00,79.0,72.0,29.91,SSW,198,6.0,7.0,80,1.79,,,-99.99,,2013-06-14 01:52:00,
2013-06-13 22:02:00,78.0,72.0,29.91,SSW,211,7.0,8.0,82,1.79,,,-99.99,,2013-06-14 02:02:00,
2013-06-13 22:11:00,78.0,72.0,29.91,SW,217,6.0,8.0,83,1.79,,,-99.99,,2013-06-14 02:11:00,
2013-06-13 22:22:00,78.0,72.0,29.91,SW,219,5.0,8.0,83,1.79,,,-99.99,,2013-06-14 02:22:00,
2013-06-13 22:32:00,77.0,72.0,29.92,SW,229,4.0,5.0,84,1.79,,,-99.99,,2013-06-14 02:32:00,
2013-06-13 22:43:00,77.0,72.0,29.92,SW,228,4.0,6.0,84,1.79,,,-99.99,,2013-06-14 02:43:00,
2013-06-13 22:52:00,77.0,72.0,29.93,SW,219,5.0,6.0,86,1.79,,,-99.99,,2013-06-14 02:52:00,
2013-06-13 23:02:00,77.0,73.0,29.93,SW,217,6.0,7.0,87,1.79,,,-99.99,,2013-06-14 03:02:00,
2013-06-13 23:12:00,77.0,73.0,29.93,SW,219,5.0,6.0,88,1.79,,,-99.99,,2013-06-14 03:12:00,
2013-06-13 23:22:00,77.0,73.0,29.93,SW,226,5.0,6.0,88,1.79,,,-99.99,,2013-06-14 03:22:00,
2013-06-13 23:34:00,77.0,73.0,29.93,SW,226,5.0,6.0,88,1.79,,,-99.99,,2013-06-14 03:34:00,
2013-06-13 23:43:00,77.0,73.0,29.93,WSW,250,4.0,5.0,88,1.79,,,-99.99,,2013-06-14 03:43:00,
2013-06-13 23:53:00,77.0,73.0,29.93,WSW,250,4.0,5.0,88,1.79,,,-99.99,,2013-06-14 03:53:00,